SM4IVE-5 Odensbacken SE current weather conditions

sailwx.info

Wind from 210 at 5 knots gusting 8

Air temperature 16.1° C
Dewpoint 15.3° C

Last reported at 2019-Jul-22 05:00 UTC.
Time now 2019-Jul-22 05:26 UTC

Location: N 59°08' E 015°32'.
View on Google Maps.

See reports from other nearby stations

  
Tides and Currents Weather Stations Pressure Air Temp Water Temp Dewpoint Dewpoint Depression Visibility Wind Speed Wind Dir Waves Ship Positions
date/time (UTC)wind fromknots sea level pressurealtimeterstation pressurevisibilityair tempwater tempwave heightnotes
2019-Jul-22 05:05 227 16.1
2019-Jul-22 05:00 210 5 gusting 8 16.1
2019-Jul-22 04:55 209 16.1
2019-Jul-22 04:50 242 2 gusting 6 16.1
2019-Jul-22 04:45 209 2 gusting 7 16.1
2019-Jul-22 04:40 211 2 gusting 7 15.6
2019-Jul-22 04:35 210 2 gusting 6 15.6
2019-Jul-22 04:30 214 1 gusting 6 15.6
2019-Jul-22 04:25 222 3 gusting 7 15.6
2019-Jul-22 04:20 221 3 gusting 7 15.6
2019-Jul-22 04:15 218 3 gusting 7 15.6
2019-Jul-22 04:10 225 4 gusting 6 15.0
2019-Jul-22 04:05 210 2 gusting 6 15.0
2019-Jul-22 04:00 210 3 gusting 6 15.0
2019-Jul-22 03:55 232 15.0
2019-Jul-22 03:50 222 15.0
2019-Jul-22 03:45 222 0 gusting 4 15.0
2019-Jul-22 03:40 234 15.0
2019-Jul-22 03:35 234 15.0
2019-Jul-22 03:30 234 15.0
2019-Jul-22 03:25 234 15.0
2019-Jul-22 03:20 233 1 gusting 4 15.0
2019-Jul-22 03:15 236 15.0
2019-Jul-22 03:10 236 0 gusting 4 15.0
2019-Jul-22 03:06 236 15.0
2019-Jul-22 03:00 237 15.0
2019-Jul-22 02:55 238 1 gusting 5 15.0
2019-Jul-22 02:50 233 2 gusting 5 15.0
2019-Jul-22 02:45 215 2 gusting 5 15.0
2019-Jul-22 02:40 232 1 gusting 6 15.0
2019-Jul-22 02:35 219 1 gusting 4 15.0
2019-Jul-22 02:30 219 2 gusting 4 15.0
2019-Jul-22 02:25 221 2 gusting 4 15.0
2019-Jul-22 02:20 360 2 gusting 4 15.0
2019-Jul-22 02:15 360 2 gusting 5 15.0
2019-Jul-22 02:10 223 3 gusting 5 15.0
2019-Jul-22 02:05 232 0 gusting 6 15.0
2019-Jul-22 02:00 227 2 gusting 6 15.0
2019-Jul-22 01:55 230 0 gusting 4 15.0
2019-Jul-22 01:50 246 15.0
2019-Jul-22 01:45 246 15.0
2019-Jul-22 01:40 248 1 gusting 4 15.0
2019-Jul-22 01:35 256 0 gusting 6 15.0
2019-Jul-22 01:30 257 1 gusting 6 15.0
2019-Jul-22 01:25 236 15.0
2019-Jul-22 01:20 225 15.0
2019-Jul-22 01:15 225 3 gusting 8 15.0
2019-Jul-22 01:10 360 0 gusting 4 15.0
2019-Jul-22 01:05 232 0 gusting 3 15.0
2019-Jul-22 01:00 236 15.6
2019-Jul-22 00:55 236 2 gusting 6 15.6
2019-Jul-22 00:50 233 1 gusting 3 15.6
2019-Jul-22 00:45 234 15.6
2019-Jul-22 00:40 239 1 gusting 5 15.6
2019-Jul-22 00:35 226 1 gusting 5 15.6
2019-Jul-22 00:30 226 15.6
2019-Jul-22 00:25 229 2 gusting 5 15.6
2019-Jul-22 00:20 225 16.1
2019-Jul-22 00:15 225 0 gusting 3 16.1
2019-Jul-22 00:10 225 0 gusting 3 16.1
2019-Jul-22 00:06 227 1 gusting 5 16.1
2019-Jul-22 00:00 227 2 gusting 6 16.1
2019-Jul-21 23:55 240 4 gusting 6 16.1
2019-Jul-21 23:50 245 1 gusting 6 16.1
2019-Jul-21 23:45 232 2 gusting 6 16.1
2019-Jul-21 23:40 226 0 gusting 5 16.1
2019-Jul-21 23:35 241 1 gusting 4 16.1
2019-Jul-21 23:30 238 0 gusting 6 16.1
2019-Jul-21 23:25 238 0 gusting 6 16.1
2019-Jul-21 23:20 253 2 gusting 5 16.7
2019-Jul-21 23:15 263 1 gusting 7 16.7
2019-Jul-21 23:10 227 0 gusting 6 16.7
2019-Jul-21 23:05 237 1 gusting 7 16.7
2019-Jul-21 23:00 247 3 gusting 7 16.7
2019-Jul-21 22:55 256 1 gusting 6 16.7
2019-Jul-21 22:50 233 2 gusting 6 16.7
2019-Jul-21 22:45 236 4 gusting 7 16.7
2019-Jul-21 22:40 165 16.7
2019-Jul-21 22:35 165 16.7
2019-Jul-21 22:30 165 16.7
2019-Jul-21 22:25 165 16.7
2019-Jul-21 22:20 164 16.7
2019-Jul-21 22:15 165 16.7
2019-Jul-21 22:10 165 17.2
2019-Jul-21 22:05 164 17.2
2019-Jul-21 22:00 165 17.2
2019-Jul-21 21:55 165 17.2
2019-Jul-21 21:50 162 0 gusting 5 17.2
2019-Jul-21 21:45 153 17.2
2019-Jul-21 21:40 153 1 gusting 4 17.2
2019-Jul-21 21:35 131 0 gusting 4 17.2
2019-Jul-21 21:30 131 0 gusting 2 17.2
2019-Jul-21 21:25 131 17.2
2019-Jul-21 21:20 130 17.2
2019-Jul-21 21:15 131 17.2
2019-Jul-21 21:10 131 17.2
2019-Jul-21 21:05 131 17.2
2019-Jul-21 21:00 130 17.2
2019-Jul-21 20:55 131 0 gusting 3 16.7
2019-Jul-21 20:50 130 16.7
2019-Jul-21 20:45 131 16.7
2019-Jul-21 20:40 130 16.7
2019-Jul-21 20:35 131 16.7
2019-Jul-21 20:30 130 17.2
2019-Jul-21 20:25 131 17.2
2019-Jul-21 20:20 130 0 gusting 2 17.2
2019-Jul-21 20:15 131 17.2
2019-Jul-21 20:10 131 17.2
2019-Jul-21 20:06 130 17.2
2019-Jul-21 20:00 131 17.2
2019-Jul-21 19:55 130 17.8
2019-Jul-21 19:50 131 17.8
2019-Jul-21 19:45 130 17.8
2019-Jul-21 19:40 131 1 gusting 2 17.8
2019-Jul-21 19:35 131 17.8
2019-Jul-21 19:30 131 17.8
2019-Jul-21 19:25 131 17.8
2019-Jul-21 19:20 131 18.3
2019-Jul-21 19:15 131 1 gusting 3 18.3
2019-Jul-21 19:10 130 0 gusting 3 18.3
2019-Jul-21 19:05 130 1 gusting 3 18.3
2019-Jul-21 19:00 131 18.3
2019-Jul-21 18:55 131 18.3
2019-Jul-21 18:50 131 18.3
2019-Jul-21 18:45 131 0 gusting 2 18.3
2019-Jul-21 18:40 130 18.3
2019-Jul-21 18:35 131 18.3
2019-Jul-21 18:30 130 18.3
2019-Jul-21 18:25 130 18.3
2019-Jul-21 18:20 131 18.9
2019-Jul-21 18:15 131 18.9
2019-Jul-21 18:10 130 18.9
2019-Jul-21 18:06 132 0 gusting 4 19.4
2019-Jul-21 18:00 132 1 gusting 4 19.4
2019-Jul-21 17:55 146 19.4
2019-Jul-21 17:50 146 19.4
2019-Jul-21 17:45 146 19.4
2019-Jul-21 17:40 146 19.4
2019-Jul-21 17:35 146 19.4
2019-Jul-21 17:30 146 20.0
2019-Jul-21 17:25 146 20.0
2019-Jul-21 17:20 146 0 gusting 2 20.0
2019-Jul-21 17:15 146 20.0
2019-Jul-21 17:10 146 20.0
2019-Jul-21 17:05 146 20.0
2019-Jul-21 17:00 146 20.0
2019-Jul-21 16:55 146 20.0
2019-Jul-21 16:50 146 20.0
2019-Jul-21 16:45 146 20.0
2019-Jul-21 16:40 146 20.0
2019-Jul-21 16:35 146 20.0
2019-Jul-21 16:30 146 0 gusting 3 20.0
2019-Jul-21 16:25 146 20.0
2019-Jul-21 16:20 146 20.0
2019-Jul-21 16:15 146 20.0
2019-Jul-21 16:10 146 20.0
2019-Jul-21 16:05 145 19.4
2019-Jul-21 16:00 146 19.4
2019-Jul-21 15:55 148 0 gusting 7 19.4
2019-Jul-21 15:50 148 4 gusting 7 19.4
2019-Jul-21 15:45 153 0 gusting 5 19.4
2019-Jul-21 15:40 150 18.9
2019-Jul-21 15:35 150 18.9
2019-Jul-21 15:30 150 18.9
2019-Jul-21 15:25 149 0 gusting 6 18.9
2019-Jul-21 15:20 144 0 gusting 6 18.9
2019-Jul-21 15:15 147 0 gusting 6 18.9
2019-Jul-21 15:10 144 0 gusting 6 18.9
2019-Jul-21 15:05 148 1 gusting 6 18.9
2019-Jul-21 15:00 142 18.9
2019-Jul-21 14:55 143 18.9
2019-Jul-21 14:50 144 4 gusting 6 18.9
2019-Jul-21 14:45 156 18.9
2019-Jul-21 14:40 157 0 gusting 4 18.9
2019-Jul-21 14:35 158 18.9
2019-Jul-21 14:30 157 0 gusting 6 18.9
2019-Jul-21 14:25 160 2 gusting 6 18.9
2019-Jul-21 14:20 156 0 gusting 6 18.9
2019-Jul-21 14:15 153 2 gusting 6 18.9
2019-Jul-21 14:10 144 0 gusting 8 18.9
2019-Jul-21 14:05 136 4 gusting 8 18.9
2019-Jul-21 14:00 150 3 gusting 6 18.3
2019-Jul-21 13:55 159 0 gusting 5 18.3
2019-Jul-21 13:50 159 0 gusting 5 18.3
2019-Jul-21 13:45 161 0 gusting 5 18.3
2019-Jul-21 13:40 153 18.3
2019-Jul-21 13:35 150 18.3
2019-Jul-21 13:30 150 18.3
2019-Jul-21 13:25 141 18.3
2019-Jul-21 13:20 141 0 gusting 4 17.8
2019-Jul-21 13:15 130 0 gusting 7 17.8
2019-Jul-21 13:10 129 3 gusting 8 17.8
2019-Jul-21 13:05 128 1 gusting 6 17.8
2019-Jul-21 13:00 130 17.8
2019-Jul-21 12:55 126 0 gusting 4 17.8
2019-Jul-21 12:50 126 1 gusting 6 17.8
2019-Jul-21 12:45 126 0 gusting 6 17.8
2019-Jul-21 12:40 125 0 gusting 7 17.8
2019-Jul-21 12:35 129 17.8
2019-Jul-21 12:30 130 17.2
2019-Jul-21 12:25 129 17.8
2019-Jul-21 12:20 127 17.8
2019-Jul-21 12:15 126 2 gusting 7 17.8
2019-Jul-21 12:10 126 1 gusting 5 17.8
2019-Jul-21 12:05 122 1 gusting 7 17.2
2019-Jul-21 12:00 117 1 gusting 7 17.2
2019-Jul-21 11:55 145 1 gusting 3 17.2
2019-Jul-21 11:50 146 17.2
2019-Jul-21 11:45 146 17.2
2019-Jul-21 11:40 147 0 gusting 3 17.2
2019-Jul-21 11:35 147 17.2
2019-Jul-21 11:30 146 17.2
2019-Jul-21 11:25 146 1 gusting 5 17.2
2019-Jul-21 11:20 150 17.2
2019-Jul-21 11:15 150 17.2
2019-Jul-21 11:10 150 17.2
2019-Jul-21 11:05 150 16.7
2019-Jul-21 11:00 150 16.7
2019-Jul-21 10:55 149 16.7
2019-Jul-21 10:50 149 0 gusting 6 16.7
2019-Jul-21 10:45 152 16.7
2019-Jul-21 10:40 152 16.7
2019-Jul-21 10:35 152 16.7
2019-Jul-21 10:30 152 0 gusting 5 16.7
2019-Jul-21 10:25 149 16.7
2019-Jul-21 10:20 149 16.7
2019-Jul-21 10:15 149 0 gusting 5 16.1
2019-Jul-21 10:10 149 16.1
2019-Jul-21 10:05 149 0 gusting 2 16.1
2019-Jul-21 10:00 149 16.1
2019-Jul-21 09:55 149 16.1
2019-Jul-21 09:50 149 16.1
2019-Jul-21 09:45 149 16.1
2019-Jul-21 09:40 150 16.1
2019-Jul-21 09:35 149 16.1
2019-Jul-21 09:30 149 0 gusting 5 16.1
2019-Jul-21 09:25 152 16.1
2019-Jul-21 09:20 152 16.1
2019-Jul-21 09:15 152 16.7
2019-Jul-21 09:10 152 16.7
2019-Jul-21 09:05 146 0 gusting 6 16.7
2019-Jul-21 09:00 174 0 gusting 3 17.2
2019-Jul-21 08:55 171 17.2
2019-Jul-21 08:50 173 0 gusting 7 17.2
2019-Jul-21 08:45 172 0 gusting 6 17.8
2019-Jul-21 08:40 184 0 gusting 6 17.8
2019-Jul-21 08:35 165 0 gusting 5 17.8
2019-Jul-21 08:30 163 1 gusting 6 17.8
2019-Jul-21 08:25 161 0 gusting 6 17.8
2019-Jul-21 08:20 153 17.8
2019-Jul-21 08:15 152 17.8
2019-Jul-21 08:10 152 0 gusting 4 17.8
2019-Jul-21 08:06 150 17.8
2019-Jul-21 08:00 151 0 gusting 2 17.8
2019-Jul-21 07:55 149 17.8
2019-Jul-21 07:50 149 17.8
2019-Jul-21 07:45 146 17.8
2019-Jul-21 07:40 146 17.8
2019-Jul-21 07:35 146 17.8
2019-Jul-21 07:30 145 17.8
2019-Jul-21 07:25 145 0 gusting 6 17.8
2019-Jul-21 07:20 148 17.8
2019-Jul-21 07:15 148 0 gusting 5 17.8
2019-Jul-21 07:10 148 1 gusting 6 18.3
2019-Jul-21 07:05 133 17.8
2019-Jul-21 07:00 131 1 gusting 6 17.8
2019-Jul-21 06:55 141 0 gusting 4 17.8
2019-Jul-21 06:50 154 0 gusting 5 17.8
2019-Jul-21 06:45 136 0 gusting 8 17.8
2019-Jul-21 06:40 148 1 gusting 12 17.8
2019-Jul-21 06:35 144 4 gusting 13 17.8
2019-Jul-21 06:30 138 3 gusting 8 17.8
2019-Jul-21 06:25 141 1 gusting 6 17.8
2019-Jul-21 06:20 139 2 gusting 6 17.8
2019-Jul-21 06:15 151 17.8
2019-Jul-21 06:10 140 1 gusting 6 17.8
2019-Jul-21 06:05 144 17.2
2019-Jul-21 06:00 150 17.2
2019-Jul-21 05:55 142 0 gusting 12 17.2
2019-Jul-21 05:50 144 3 gusting 12 17.2
2019-Jul-21 05:45 153 4 gusting 10 17.2
2019-Jul-21 05:40 111 2 gusting 10 17.2
2019-Jul-21 05:35 142 3 gusting 7 17.2
2019-Jul-21 05:30 146 2 gusting 7 17.2
2019-Jul-21 05:25 131 16.7
2019-Jul-21 05:20 148 2 gusting 11 16.7
2019-Jul-21 05:15 130 2 gusting 11 16.7
2019-Jul-21 05:10 151 2 gusting 8 16.7
2019-Jul-21 05:05 126 3 gusting 8 16.7
2019-Jul-21 05:00 127 0 gusting 8 16.7
2019-Jul-21 04:55 156 1 gusting 9 16.7
2019-Jul-21 04:50 148 2 gusting 9 16.1
2019-Jul-21 04:45 142 0 gusting 9 16.1
2019-Jul-21 04:40 145 16.1
2019-Jul-21 04:35 184 0 gusting 7 16.1
2019-Jul-21 04:30 155 2 gusting 7 16.1
2019-Jul-21 04:25 148 3 gusting 10 16.1
2019-Jul-21 04:20 148 3 gusting 10 16.1
2019-Jul-21 04:15 138 3 gusting 12 16.1
2019-Jul-21 04:10 128 5 gusting 12 16.1
2019-Jul-21 04:05 128 3 gusting 9 16.1
2019-Jul-21 04:00 153 1 gusting 7 16.1
2019-Jul-21 03:55 148 1 gusting 6 16.1
2019-Jul-21 03:50 156 1 gusting 6 16.1
2019-Jul-21 03:45 134 2 gusting 6 16.1
2019-Jul-21 03:40 132 0 gusting 7 15.6
2019-Jul-21 03:35 150 0 gusting 11 15.6
2019-Jul-21 03:30 176 2 gusting 11 15.6
2019-Jul-21 03:25 135 2 gusting 9 15.6
2019-Jul-21 03:20 150 4 gusting 8 15.6
2019-Jul-21 03:15 127 2 gusting 8 15.6
2019-Jul-21 03:10 134 2 gusting 8 15.6
2019-Jul-21 03:06 140 1 gusting 9 15.6
2019-Jul-21 03:00 138 3 gusting 9 15.6
2019-Jul-21 02:55 153 1 gusting 7 15.6
2019-Jul-21 02:50 140 1 gusting 7 15.6
2019-Jul-21 02:45 148 0 gusting 8 15.6
2019-Jul-21 02:40 122 2 gusting 8 15.6
2019-Jul-21 02:35 136 15.6
2019-Jul-21 02:30 138 2 gusting 9 15.6
2019-Jul-21 02:25 147 3 gusting 8 15.6
2019-Jul-21 02:20 138 0 gusting 8 15.6
2019-Jul-21 02:15 148 1 gusting 8 15.6
2019-Jul-21 02:10 151 2 gusting 7 15.6
2019-Jul-21 02:05 139 0 gusting 7 15.6
2019-Jul-21 02:00 148 0 gusting 7 15.6
2019-Jul-21 01:55 160 3 gusting 13 15.6
2019-Jul-21 01:50 144 4 gusting 13 15.6
2019-Jul-21 01:45 132 2 gusting 9 15.6
2019-Jul-21 01:40 140 1 gusting 11 15.6
2019-Jul-21 01:35 151 3 gusting 11 15.6
2019-Jul-21 01:30 146 0 gusting 10 15.6
2019-Jul-21 01:25 135 2 gusting 8 15.6
2019-Jul-21 01:20 145 2 gusting 8 15.6
2019-Jul-21 01:15 143 1 gusting 9 15.6
2019-Jul-21 01:10 142 0 gusting 9 16.1
2019-Jul-21 01:05 141 1 gusting 12 16.1
2019-Jul-21 01:00 146 1 gusting 12 16.1
2019-Jul-21 00:55 155 0 gusting 18 16.1
2019-Jul-21 00:50 150 6 gusting 18 16.1
2019-Jul-21 00:45 155 2 gusting 9 16.1
2019-Jul-21 00:40 161 0 gusting 15 16.1
2019-Jul-21 00:35 171 2 gusting 15 16.7
2019-Jul-21 00:30 144 0 gusting 6 16.7
2019-Jul-21 00:25 168 16.7
2019-Jul-21 00:20 155 16.7
2019-Jul-21 00:15 163 1 gusting 6 16.7
2019-Jul-21 00:10 150 0 gusting 6 16.7
2019-Jul-21 00:06 155 16.7
2019-Jul-21 00:00 155 0 gusting 6 16.7
2019-Jul-20 23:55 142 0 gusting 4 16.7
2019-Jul-20 23:50 134 17.2
2019-Jul-20 23:45 179 1 gusting 6 17.2
2019-Jul-20 23:40 151 0 gusting 6 17.2
2019-Jul-20 23:35 149 17.2
2019-Jul-20 23:30 171 17.2
2019-Jul-20 23:25 158 17.2
2019-Jul-20 23:20 162 17.2
2019-Jul-20 23:15 162 0 gusting 8 17.2
2019-Jul-20 23:10 163 0 gusting 8 17.8
2019-Jul-20 23:05 141 2 gusting 8 17.8
2019-Jul-20 23:00 148 1 gusting 8 17.8
2019-Jul-20 22:55 153 3 gusting 8 17.8
2019-Jul-20 22:50 173 0 gusting 7 17.8
2019-Jul-20 22:45 151 1 gusting 7 17.8
2019-Jul-20 22:40 158 1 gusting 6 17.8
2019-Jul-20 22:35 144 0 gusting 7 17.8
2019-Jul-20 22:30 153 1 gusting 7 17.8
2019-Jul-20 22:25 153 1 gusting 6 17.8
2019-Jul-20 22:20 146 0 gusting 6 17.8
2019-Jul-20 22:15 147 17.8
2019-Jul-20 22:10 149 1 gusting 6 17.8
2019-Jul-20 22:05 145 2 gusting 6 17.8
2019-Jul-20 22:00 144 17.8
2019-Jul-20 21:55 142 0 gusting 4 17.8
2019-Jul-20 21:50 142 1 gusting 4 17.8
2019-Jul-20 21:45 142 0 gusting 4 17.8
2019-Jul-20 21:40 145 0 gusting 6 17.8
2019-Jul-20 21:35 146 0 gusting 4 17.8
2019-Jul-20 21:30 147 17.8
2019-Jul-20 21:25 146 0 gusting 3 17.8
2019-Jul-20 21:20 136 18.3
2019-Jul-20 21:15 136 18.3
2019-Jul-20 21:10 136 0 gusting 6 18.3
2019-Jul-20 21:05 130 0 gusting 6 18.3
2019-Jul-20 21:00 136 0 gusting 6 18.3
2019-Jul-20 20:55 127 0 gusting 6 18.3
2019-Jul-20 20:50 125 0 gusting 6 18.3
2019-Jul-20 20:45 127 0 gusting 6 18.3
2019-Jul-20 20:40 126 2 gusting 6 18.3
2019-Jul-20 20:35 134 0 gusting 3 18.3
2019-Jul-20 20:30 134 18.3
2019-Jul-20 20:25 134 18.9
2019-Jul-20 20:20 134 18.9
2019-Jul-20 20:15 134 18.9
2019-Jul-20 20:10 135 18.9
2019-Jul-20 20:06 134 18.9
2019-Jul-20 20:00 134 19.4
2019-Jul-20 19:55 134 19.4
2019-Jul-20 19:50 133 19.4
2019-Jul-20 19:45 133 20.0
2019-Jul-20 19:40 133 20.0
2019-Jul-20 19:35 133 20.6
2019-Jul-20 19:30 133 20.6
2019-Jul-20 19:25 133 0 gusting 4 20.6
2019-Jul-20 19:20 134 0 gusting 3 20.6
2019-Jul-20 19:15 136 21.1
2019-Jul-20 19:10 133 21.1
2019-Jul-20 19:05 132 1 gusting 7 21.1
2019-Jul-20 19:00 128 0 gusting 7 21.7
2019-Jul-20 18:55 133 1 gusting 7 21.7
2019-Jul-20 18:50 130 0 gusting 6 21.7
2019-Jul-20 18:45 129 1 gusting 9 21.7
2019-Jul-20 18:40 132 1 gusting 6 21.7
2019-Jul-20 18:35 132 0 gusting 11 22.2
2019-Jul-20 18:30 132 2 gusting 11 22.2
2019-Jul-20 18:25 123 22.2
2019-Jul-20 18:20 129 22.2
2019-Jul-20 18:15 121 22.8
2019-Jul-20 18:10 136 1 gusting 7 22.8
2019-Jul-20 18:05 140 2 gusting 13 22.8
2019-Jul-20 18:00 123 5 gusting 14 23.3
2019-Jul-20 17:55 130 6 gusting 16 23.3
2019-Jul-20 17:50 128 7 gusting 16 23.3
2019-Jul-20 17:45 144 1 gusting 12 23.3
2019-Jul-20 17:40 130 4 gusting 12 23.3
2019-Jul-20 17:35 141 2 gusting 8 23.3
2019-Jul-20 17:30 141 23.9
2019-Jul-20 17:25 138 2 gusting 8 23.9
2019-Jul-20 17:20 138 1 gusting 8 23.9
2019-Jul-20 17:15 130 1 gusting 8 24.4
2019-Jul-20 17:10 141 4 gusting 9 24.4
2019-Jul-20 17:05 117 3 gusting 12 24.4
2019-Jul-20 17:00 130 2 gusting 12 24.4
2019-Jul-20 16:55 123 1 gusting 8 24.4
2019-Jul-20 16:50 115 4 gusting 8 25.0
2019-Jul-20 16:45 132 3 gusting 8 25.0
2019-Jul-20 16:40 142 2 gusting 18 25.0
2019-Jul-20 16:35 102 6 gusting 23 25.0
2019-Jul-20 16:30 137 8 gusting 23 25.6
2019-Jul-20 16:25 129 1 gusting 15 25.6
2019-Jul-20 16:20 159 5 gusting 19 25.6
2019-Jul-20 16:15 175 2 gusting 19 25.6
2019-Jul-20 16:10 130 5 gusting 15 26.1
2019-Jul-20 16:05 178 26.1
2019-Jul-20 16:00 178 26.1
2019-Jul-20 15:55 103 26.1
2019-Jul-20 15:50 128 0 gusting 11 25.6
2019-Jul-20 15:45 155 1 gusting 9 25.6
2019-Jul-20 15:40 152 1 gusting 9 25.6
2019-Jul-20 15:35 107 25.6
2019-Jul-20 15:30 132 26.1
2019-Jul-20 15:25 101 26.1
2019-Jul-20 15:20 103 5 gusting 9 26.7
2019-Jul-20 15:15 182 2 gusting 7 26.7
2019-Jul-20 15:10 134 26.7
2019-Jul-20 15:05 137 26.7
2019-Jul-20 15:00 138 26.1
2019-Jul-20 14:55 129 1 gusting 9 26.1
2019-Jul-20 14:50 123 5 gusting 9 26.1
2019-Jul-20 14:45 138 1 gusting 6 26.1
2019-Jul-20 14:40 119 2 gusting 8 26.1
2019-Jul-20 14:35 153 2 gusting 9 26.7
2019-Jul-20 14:30 153 2 gusting 8 26.7
2019-Jul-20 14:25 142 3 gusting 8 26.7
2019-Jul-20 14:20 192 0 gusting 5 26.7
2019-Jul-20 14:15 182 26.1
2019-Jul-20 14:10 174 0 gusting 3 26.1
2019-Jul-20 14:05 167 25.6
2019-Jul-20 14:00 167 1 gusting 4 25.6
2019-Jul-20 13:55 155 25.6
2019-Jul-20 13:50 155 1 gusting 5 25.0
2019-Jul-20 13:45 172 25.0
2019-Jul-20 13:40 130 1 gusting 7 25.0
2019-Jul-20 13:35 154 1 gusting 7 25.6
2019-Jul-20 13:30 167 0 gusting 6 25.6
2019-Jul-20 13:25 161 0 gusting 6 25.6
2019-Jul-20 13:20 169 2 gusting 6 25.6
2019-Jul-20 13:15 126 1 gusting 6 25.6
2019-Jul-20 13:10 198 25.6
2019-Jul-20 13:05 198 25.6
2019-Jul-20 13:00 198 1 gusting 6 25.6
2019-Jul-20 12:55 176 25.6
2019-Jul-20 12:50 171 25.6
2019-Jul-20 12:45 360 26.1
2019-Jul-20 12:40 176 0 gusting 6 26.7
2019-Jul-20 12:35 196 1 gusting 6 26.7
2019-Jul-20 12:30 211 0 gusting 6 26.7
2019-Jul-20 12:25 202 1 gusting 6 26.7
2019-Jul-20 12:20 360 0 gusting 6 27.2
2019-Jul-20 12:15 360 1 gusting 8 27.2
2019-Jul-20 12:10 207 5 gusting 9 27.2
2019-Jul-20 12:06 360 1 gusting 7 26.7
2019-Jul-20 12:00 213 2 gusting 7 26.7
2019-Jul-20 11:55 179 3 gusting 6 26.7
2019-Jul-20 11:50 182 0 gusting 6 26.1
2019-Jul-20 11:45 171 1 gusting 6 26.1
2019-Jul-20 11:40 173 26.7
2019-Jul-20 11:35 176 1 gusting 8 26.1
2019-Jul-20 11:30 200 5 gusting 8 25.6
2019-Jul-20 11:25 157 2 gusting 6 25.6
2019-Jul-20 11:20 189 0 gusting 6 25.6
2019-Jul-20 11:15 133 25.0
2019-Jul-20 11:10 128 1 gusting 6 25.0
2019-Jul-20 11:05 183 1 gusting 6 24.4
2019-Jul-20 11:00 150 2 gusting 10 24.4
2019-Jul-20 10:55 150 3 gusting 7 25.0
2019-Jul-20 10:50 144 1 gusting 7 25.6
2019-Jul-20 10:45 140 2 gusting 5 25.6
2019-Jul-20 10:40 094 2 gusting 6 26.1
2019-Jul-20 10:35 079 1 gusting 4 26.7
2019-Jul-20 10:30 086 26.1
2019-Jul-20 10:25 100 25.6
2019-Jul-20 10:20 084 3 gusting 6 25.0
2019-Jul-20 10:15 074 3 gusting 7 24.4
2019-Jul-20 10:10 087 3 gusting 9 24.4
2019-Jul-20 10:05 070 4 gusting 9 24.4
2019-Jul-20 10:00 070 6 gusting 9 25.0
2019-Jul-20 09:55 085 6 gusting 9 25.0
2019-Jul-20 09:50 064 3 gusting 6 25.0
2019-Jul-20 09:45 066 0 gusting 4 24.4
2019-Jul-20 09:40 066 1 gusting 5 23.9
2019-Jul-20 09:35 068 3 gusting 6 23.9
2019-Jul-20 09:30 079 4 gusting 8 24.4
2019-Jul-20 09:25 090 4 gusting 8 24.4
2019-Jul-20 09:20 071 3 gusting 8 25.0
2019-Jul-20 09:15 100 4 gusting 7 25.0
2019-Jul-20 09:10 076 3 gusting 8 25.0
2019-Jul-20 09:05 034 4 gusting 9 24.4
2019-Jul-20 09:00 067 5 gusting 9 25.0
2019-Jul-20 08:55 053 0 gusting 6 25.0
2019-Jul-20 08:50 055 1 gusting 5 24.4
2019-Jul-20 08:45 089 3 gusting 6 25.0
2019-Jul-20 08:40 084 3 gusting 6 25.0
2019-Jul-20 08:35 069 0 gusting 6 25.0
2019-Jul-20 08:30 060 3 gusting 6 25.0
2019-Jul-20 08:25 051 2 gusting 4 25.0
2019-Jul-20 08:20 044 2 gusting 5 25.0
2019-Jul-20 08:15 059 2 gusting 5 25.0
2019-Jul-20 08:10 099 1 gusting 5 25.6
2019-Jul-20 08:06 064 1 gusting 3 26.7
2019-Jul-20 08:00 062 1 gusting 4 27.2
2019-Jul-20 07:55 360 1 gusting 4 27.2
2019-Jul-20 07:50 360 0 gusting 4 27.2
2019-Jul-20 07:45 013 27.2
2019-Jul-20 07:40 015 26.7
2019-Jul-20 07:35 014 26.7
2019-Jul-20 07:30 011 26.1
2019-Jul-20 07:25 015 25.6
2019-Jul-20 07:20 018 1 gusting 3 25.6
2019-Jul-20 07:15 143 0 gusting 3 25.0
2019-Jul-20 07:10 148 0 gusting 2 25.0
2019-Jul-20 07:06 148 25.0
2019-Jul-20 07:00 148 24.4
2019-Jul-20 06:55 148 24.4
2019-Jul-20 06:50 148 24.4
2019-Jul-20 06:45 148 23.9
2019-Jul-20 06:40 148 23.3
2019-Jul-20 06:35 148 23.3
2019-Jul-20 06:30 148 22.8
2019-Jul-20 06:25 148 22.8
2019-Jul-20 06:20 148 23.3
2019-Jul-20 06:15 148 22.8
2019-Jul-20 06:10 148 22.2
2019-Jul-20 06:05 148 21.7
2019-Jul-20 06:00 149 21.7
2019-Jul-20 05:55 149 21.1
2019-Jul-20 05:50 149 21.1
2019-Jul-20 05:45 149 20.6
2019-Jul-20 05:40 149 20.0
2019-Jul-20 05:35 149 19.4
2019-Jul-20 05:30 149 19.4
2019-Jul-20 05:25 149 18.9
2019-Jul-20 05:20 149 18.3
2019-Jul-20 05:15 149 18.3
2019-Jul-20 05:10 149 17.8
2019-Jul-20 05:05 149 17.2
2019-Jul-20 05:00 149 17.2